JOPM7: Shoal Creek, Joplin, MO

Data processed at Fri Dec 08 2017 23:37


All information presented herein is the property of the government of the United States of America and may be revised or deleted at any time without prior notice.
Dissemination of this information without the expressed written consent of the Public Affairs Office, Tulsa District U.S. Army Corps of Engineers is strictly prohibited.
These data are gathered electronically and, as presented, have not undergone any form of quality control. These data are not guaranteed to be valid or correct.
Go to home page.
Go to station list.

Downstream station:


Previous Day
Next Day
Current Day
    
SHEF ID:       JOPM7     Shoal Creek above Joplin, MO
STATION TYPE:  

               PRECIP PRECIP(A)     STAGE  RIV-FLOW   VOLTAGE
                   in        in        ft       cfs      volt
              Ccp-Rev   Ccp-Rev   Ccp-Rev   Ccp-Rev   Ccp-Rev
(US/Central)
12/06 00:00      0.00      ----      1.73       105     12.96
12/06 01:00      0.00      ----      1.73       105     12.94
12/06 02:00      0.00      ----      1.73       105     12.92
12/06 03:00      0.00      ----      1.73       105     12.90
12/06 04:00      0.00      ----      1.73       105     12.86
12/06 05:00      0.00      ----      1.74       108     12.82
12/06 06:00      0.00      ----      1.74       108     12.80
12/06 07:00      0.00      ----      1.75       110     12.80
12/06 08:00      0.00      ----      1.74       108     13.59
12/06 09:00      0.00      ----      1.75       110     14.27
12/06 10:00      0.00      ----      1.75       110     13.92
12/06 11:00      0.00      ----      1.75       110     13.99
12/06 12:00      0.00      ----      1.74       108     14.09
12/06 13:00      0.00      ----      1.74       108     14.35
12/06 14:00      0.00      ----      1.73       105     13.90
12/06 15:00      0.00      ----      1.73       105     14.29
12/06 16:00      0.00      ----      1.71       100     13.60
12/06 17:00      0.00      ----      1.70        98     13.22
12/06 18:00      0.00      ----      1.70        98     13.11
12/06 19:00      0.00      ----      1.70        98     13.07
12/06 20:00      0.00      ----      1.70        98     13.03
12/06 21:00      0.00      ----      1.70        98     13.01
12/06 22:00      0.00      ----      1.70        98     12.99
12/06 23:00      0.00      ----      1.70        98     12.98